sat.trackr.live / text

‹ back to catalog

SES-12

NORAD 43488 · 2018-049A

PAYLOAD ACTIVE UNKNOWN

§ Identity

Operator
Country
SES
Launch date
2018-06-04
Launch site
AFETR
Launch vehicle
Mass (kg)
RCS (m²)

Purposes: comms

External: N2YO · Heavens-Above · Gunter

§ Orbital elements

Epoch: 2026-05-25T02:29:00.063744Z

Period
1,436.10 min
Inclination
0.0399°
Eccentricity
0.0001267
Mean motion
1.00271557 rev/d
Perigee alt
35,781.3 km
Apogee alt
35,792.0 km
Semi-major
42,164.8 km
B*
0.0000e+0
RAAN
67.7639°
Arg perigee
245.8579°
Mean anomaly
61.3309°
Rev number
2,918

§ Raw data

SES-121 43488U 18049A   26145.10347296 -.00000272  00000+0  00000+0 0  99992 43488   0.0399  67.7639 0001267 245.8579  61.3309  1.00271557 29184

JSON: /api/v1/satellites/43488 · /tle

For live sub-satellite position, see the globe view (requires WebGL).

§ Visibility from observer

Set your observer location to see the next 7 days of passes ≥ 10°. The values pass through the URL so the page stays shareable.

No JS? Fill the form by hand. The geolocation button needs JavaScript.